Flag for United Kingdom Weather past 2 weeks in Middlesbrough, England, United Kingdom

Now
54 °F

Scattered clouds.


Feels Like: 50 °F
Forecast: 39 / 52 °F
Wind: 13 mph from Northeast

Location: Tees-Side


UV Index: 0 (Low)

Visibility: N/A


Pressure: 30.15 "Hg

Humidity: 63%

Dew point: 41 °F

Location of MiddlesbroughLocation

Historic Weather in Middlesbrough

°F

Middlesbrough temperature yesterday

Maximum temperature yesterday: 52 °F (at 1:50 PM)
Minimum temperature yesterday: 37 °F (at 5:50 AM)
Average temperature yesterday: 46 °F

Past Weeks' High & Low Weather Summary

 TemperatureHumidityPressure
High63 °F (Apr 6, 12:20 PM)93% (Apr 5, 6:20 AM)30.45 "Hg (Apr 5, 6:20 AM)
Low32 °F (Apr 19, 5:50 AM)39% (Apr 11, 2:50 PM)29.47 "Hg (Apr 7, 2:50 PM)
Average51 °F67%30.02 "Hg
* Reported Apr 4 2:20 PM — Apr 19 2:50 PM, Middlesbrough, Weather by CustomWeather, © 2014

Note: Actual official high and low records may vary slightly from our data, if they occured in-between our weather recording intervals... More about our weather records

Advertising

Historic Weather Conditions — Data for Previous 24 hours

 ConditionsComfort  
Time TempWeatherWind HumidityBarometerVisibility
2:50 PM
Apr 19
55 °FScattered clouds.8 mph51%30.15 "HgN/A
2:20 PM55 °FScattered clouds.8 mph51%30.15 "HgN/A
1:50 PM54 °FPassing clouds.6 mph54%30.15 "HgN/A
1:20 PM54 °FPassing clouds.6 mph58%30.18 "HgN/A
12:50 PM52 °FScattered clouds.7 mph62%30.18 "HgN/A
12:20 PM52 °FPartly sunny.5 mph62%30.18 "HgN/A
11:50 AM50 °FScattered clouds.7 mph62%30.18 "HgN/A
11:20 AM48 °FScattered clouds.7 mph66%30.18 "HgN/A
10:50 AM48 °FScattered clouds.7 mph66%30.18 "HgN/A
10:20 AM46 °FScattered clouds.5 mph71%30.18 "HgN/A
9:50 AM45 °FScattered clouds.3 mph76%30.18 "HgN/A
9:20 AM41 °FPartly sunny.2 mph81%30.18 "HgN/A
8:50 AM39 °FPartly sunny.2 mph81%30.18 "HgN/A
8:20 AM39 °FScattered clouds.No wind81%30.18 "HgN/A
7:50 AM36 °FSunny.1 mph87%30.18 "Hg10 mi
7:20 AM32 °FSunny.No wind87%30.18 "Hg10 mi
6:50 AM32 °FClear.1 mph93%30.18 "Hg10 mi
6:20 AM32 °FClear.5 mph93%30.15 "Hg10 mi
5:50 AM32 °FClear.5 mph93%30.15 "Hg10 mi
9:50 PM
Apr 18
41 °FClear.5 mph70%30.18 "Hg10 mi
9:20 PM43 °FClear.5 mph66%30.18 "Hg10 mi
8:50 PM43 °FSunny.5 mph66%30.18 "Hg10 mi
8:20 PM43 °FSunny.8 mph71%30.18 "Hg10 mi
7:50 PM46 °FSunny.8 mph62%30.18 "Hg10 mi
7:20 PM48 °FSunny.8 mph58%30.18 "Hg10 mi
6:50 PM50 °FSunny.9 mph58%30.18 "Hg10 mi
6:20 PM50 °FPassing clouds.5 mph58%30.18 "HgN/A
5:50 PM52 °FPassing clouds.8 mph54%30.18 "HgN/A
5:20 PM50 °FPassing clouds.6 mph58%30.18 "HgN/A
4:50 PM52 °FPassing clouds.8 mph58%30.18 "HgN/A
4:20 PM52 °FSunny.9 mph58%30.18 "Hg10 mi
Weather by CustomWeather, © 2014

See weather overview